Location: Arborea
(39.7744°N, 8.5819°E)
Time: 23:16:34
(UTC+00:00)

Cosmos 1000 Rocket - Pass Details

Date: 08 October 2023
Orbit: 952 x 993 km, 82.9° (Epoch: 03 December)

Event Time Altitude Azimuth Distance (km) Brightness Sun altitude
Exits shadow 18:53:08 22° 43° (NE) 2,026 5.9 -22.9°
Drops below altitude 10° 18:55:40 10° 26° (NNE) 2,762 6.7 -23.4°
Sets 18:58:26 0° 18° (NNE) 3,713 7.5 -23.9°
